Location: ??????
(55.6361°N, 38.0803°E)
Time: 21:28:58
(UTC+00:00)

Cosmos 405 - Pass Details

Date: 30 March 2020
Orbit: 451 x 465 km, 81.3° (Epoch: 30 May)

Event Time Altitude Azimuth Distance (km) Brightness Sun altitude
Exits shadow 01:06:19 18° 178° (S) 1,231 4.8 -16.2°
Maximum altitude 01:08:51 62° 101° (E) 532 3.4 -15.9°
Drops below altitude 10° 01:12:24 10° 20° (NNE) 1,637 6.5 -15.5°
Sets 01:14:30 0° 17° (NNE) 2,519 7.5 -15.2°
